User: anonymous   Login
Location: Gollag?dem
(16.8053°N, 80.8024°E)
Time: 09:03:34
(UTC+00:00)
Language:

GPS 2-18 Rocket1 - Orbit

View from above orbital plane
View from above orbital plane
View from above satellite
View from above satellite

Ground track
Ground track

The orbit data is extracted from the following two-line orbital elements,

1 22447U 93007B   20293.86783462 +.00002146 +00000-0 +56928-4 0  9995
2 22447 020.8523 118.4230 0041087 351.8869 008.0909 15.26345842520003
Epoch (UTC): 19 October 2020 20:49:40
Eccentricity: 0.0041087
inclination: 20.8523°
perigee height: 458 km
apogee height: 515 km
right ascension of ascending node: 118.4230°
argument of perigee: 351.8869°
revolutions per day: 15.26345842
mean anomaly at epoch: 8.0909°
orbit number at epoch: 52000

The dashed part of the orbit path shows where the satellite is in the earth's shadow,  

DLR